FW5426 Weather Reports


time (UTC)temp
F
wind
direction
speed
knots
gust
knots
rain 1hr
in
rain 24hr
in
rain mn
in
humidity
%
barometer
mb
20260506103329 62 332 7.0 17.4 0.00 0.00 0.00 33 1015.3
20260506102829 62 323 7.0 17.4 0.00 0.00 0.00 32 1015.3
20260506102329 62 332 8.7 14.8 0.00 0.00 0.00 32 1015.3
20260506101829 63 324 8.7 14.8 0.00 0.00 0.00 32 1015.2
20260506101329 63 313 8.7 15.6 0.00 0.00 0.00 32 1015.2
20260506100829 63 323 8.7 15.6 0.00 0.00 0.00 32 1015.2
20260506100330 63 310 7.8 15.6 0.00 0.00 0.00 32 1015.1
20260506100311 63 297 8.7 18.2 0.00 0.00 0.00 32 1015.1
20260506095552 63 331 8.7 18.2 0.00 0.00 0.00 31 1015.2
20260506094830 63 321 8.7 17.4 0.00 0.00 0.00 32 1015.0
20260506094329 63 355 9.6 17.4 0.00 0.00 0.00 32 1015.0
20260506093829 63 350 10.4 20.9 0.00 0.00 0.00 31 1015.0
20260506093329 63 302 10.4 20.9 0.00 0.00 0.00 31 1015.0
20260506093058 63 315 8.7 15.6 0.00 0.00 0.00 31 1015.1
20260506092329 63 317 8.7 14.8 0.00 0.00 0.00 31 1014.9
20260506091829 64 321 8.7 14.8 0.00 0.00 0.00 31 1015.0
20260506091329 64 328 8.7 14.8 0.00 0.00 0.00 31 1014.9
20260506090829 64 317 9.6 18.2 0.00 0.00 0.00 31 1014.9
20260506090555 64 331 9.6 18.2 0.00 0.00 0.00 32 1014.9
20260506085829 64 313 7.8 19.1 0.00 0.00 0.00 32 1014.7
20260506085557 64 312 7.8 19.1 0.00 0.00 0.00 33 1014.7
20260506084830 64 336 7.0 13.0 0.00 0.00 0.00 32 1014.7
20260506084329 64 288 7.0 13.0 0.00 0.00 0.00 32 1014.9
20260506083829 64 316 7.0 14.8 0.00 0.00 0.00 32 1014.9
20260506083328 65 337 6.1 14.8 0.00 0.00 0.00 32 1014.9
20260506082829 65 337 7.0 13.9 0.00 0.00 0.00 31 1015.0
20260506082330 65 312 7.8 15.6 0.00 0.00 0.00 30 1014.9
20260506081829 65 315 7.8 15.6 0.00 0.00 0.00 30 1014.7
20260506081545 66 290 10.4 21.7 0.00 0.00 0.00 28 1014.9
20260506081532 65 317 9.6 21.7 0.00 0.00 0.00 29 1014.9
20260506080329 66 299 10.4 15.6 0.00 0.00 0.00 26 1014.7
20260506073328 68 281 11.3 20.9 0.00 0.00 0.00 23 1014.6
20260506072829 68 259 10.4 20.9 0.00 0.00 0.00 22 1014.4
20260506072554 68 241 10.4 22.6 0.00 0.00 0.00 23 1014.4
20260506071830 68 329 11.3 22.6 0.00 0.00 0.00 23 1014.5
20260506071329 68 286 10.4 20.0 0.00 0.00 0.00 23 1014.4
20260506070829 68 276 10.4 20.0 0.00 0.00 0.00 23 1014.5
20260506070329 68 275 9.6 16.5 0.00 0.00 0.00 23 1014.5
20260506070321 67 275 8.7 15.6 0.00 0.00 0.00 23 1014.5
20260506062330 69 279 9.6 15.6 0.00 0.00 0.00 23 1014.4
20260506062049 69 244 9.6 15.6 0.00 0.00 0.00 22 1014.3
20260506061329 69 257 9.6 18.2 0.00 0.00 0.00 22 1014.4
20260506060830 70 244 10.4 18.2 0.00 0.00 0.00 22 1014.4
20260506060553 70 271 9.6 17.4 0.00 0.00 0.00 22 1014.3
20260506051329 70 267 10.4 18.2 0.00 0.00 0.00 21 1014.0
20260506050829 70 275 11.3 18.2 0.00 0.00 0.00 21 1014.0
20260506050556 71 265 10.4 21.7 0.00 0.00 0.00 20 1013.8
20260506044829 71 266 12.2 20.9 0.00 0.00 0.00 19 1013.6
20260506044329 71 244 13.9 21.7 0.00 0.00 0.00 18 1013.5
20260506043827 71 275 12.2 21.7 0.00 0.00 0.00 19 1013.6
20260506043321 71 254 10.4 20.0 0.00 0.00 0.00 19 1013.4
20260506042815 71 284 11.3 22.6 0.00 0.00 0.00 18 1013.3
20260506042309 71 292 13.0 24.3 0.00 0.00 0.00 18 1013.3
20260506042028 72 306 12.2 24.3 0.00 0.00 0.00 17 1013.3
20260506041303 72 266 11.3 20.0 0.00 0.00 0.00 17 1013.3
20260506040804 72 249 12.2 21.7 0.00 0.00 0.00 16 1013.3
20260506040303 72 272 14.8 22.6 0.00 0.00 0.00 16 1013.1
20260506040027 72 256 13.9 23.5 0.00 0.00 0.00 15 1013.1
20260506035305 72 277 11.3 23.5 0.00 0.00 0.00 16 1013.1
20260506034803 72 242 11.3 20.0 0.00 0.00 0.00 16 1012.9
20260506034304 72 246 13.0 20.9 0.00 0.00 0.00 16 1012.9
20260506033803 72 263 13.0 20.9 0.00 0.00 0.00 17 1012.8
20260506033303 73 276 11.3 20.0 0.00 0.00 0.00 17 1012.7
20260506033028 73 258 9.6 19.1 0.00 0.00 0.00 18 1012.6
20260506032526 73 248 8.7 19.1 0.00 0.00 0.00 19 1012.6
20260506031803 73 254 9.6 19.1 0.00 0.00 0.00 19 1012.6
20260506031303 73 297 10.4 19.1 0.00 0.00 0.00 19 1012.6
20260506030803 73 257 10.4 26.1 0.00 0.00 0.00 19 1012.4
20260506030523 73 255 11.3 26.1 0.00 0.00 0.00 18 1012.5
20260506025801 74 277 10.4 23.5 0.00 0.00 0.00 18 1012.4
20260506025522 74 262 10.4 23.5 0.00 0.00 0.00 19 1012.3
20260506024800 74 265 9.6 22.6 0.00 0.00 0.00 19 1012.3
20260506024301 74 224 9.6 15.6 0.00 0.00 0.00 20 1012.3
20260506023801 74 262 7.8 15.6 0.00 0.00 0.00 20 1011.9
20260506023531 74 190 7.0 14.8 0.00 0.00 0.00 21 1011.9
20260506022801 74 261 9.6 18.2 0.00 0.00 0.00 21 1011.9
20260506022305 74 254 9.6 22.6 0.00 0.00 0.00 21 1011.8
20260506021801 74 252 7.8 22.6 0.00 0.00 0.00 20 1011.8
20260506021301 74 276 8.7 20.9 0.00 0.00 0.00 20 1011.8
20260506021028 74 234 12.2 21.7 0.00 0.00 0.00 20 1011.7
20260506020302 74 288 11.3 21.7 0.00 0.00 0.00 19 1011.7
20260506015801 75 229 9.6 17.4 0.00 0.00 0.00 19 1011.7
20260506015520 75 244 9.6 16.5 0.00 0.00 0.00 19 1011.7
20260506014801 75 264 9.6 26.9 0.00 0.00 0.00 19 1011.7
20260506014301 75 256 10.4 26.9 0.00 0.00 0.00 19 1011.5
20260506013801 75 242 9.6 18.2 0.00 0.00 0.00 19 1011.5
20260506013300 75 238 8.7 16.5 0.00 0.00 0.00 19 1011.4
20260506012801 75 248 11.3 23.5 0.00 0.00 0.00 19 1011.4
20260506012307 75 237 12.2 23.5 0.00 0.00 0.00 19 1011.4
20260506012022 75 252 10.4 20.9 0.00 0.00 0.00 19 1011.4
20260506011301 76 238 10.4 18.2 0.00 0.00 0.00 20 1011.4
20260506010801 76 292 11.3 18.2 0.00 0.00 0.00 21 1011.3
20260506010521 76 255 10.4 18.2 0.00 0.00 0.00 21 1011.4
20260506005801 76 217 11.3 22.6 0.00 0.00 0.00 21 1011.1
20260506005301 76 236 13.0 25.2 0.00 0.00 0.00 21 1011.4
20260506004801 76 265 11.3 25.2 0.00 0.00 0.00 22 1011.4
20260506004301 76 196 10.4 22.6 0.00 0.00 0.00 21 1011.3
20260506003801 76 215 10.4 20.9 0.00 0.00 0.00 22 1011.4
20260506003301 76 264 11.3 21.7 0.00 0.00 0.00 22 1011.3
20260506002800 76 246 10.4 21.7 0.00 0.00 0.00 23 1011.3
20260506002300 76 272 10.4 21.7 0.00 0.00 0.00 24 1011.4
20260506001801 76 275 11.3 21.7 0.00 0.00 0.00 24 1011.5
20260506001301 76 250 12.2 22.6 0.00 0.00 0.00 25 1011.4
20260506000801 76 273 9.6 22.6 0.00 0.00 0.00 25 1011.4
20260506000302 76 275 7.8 16.5 0.00 0.00 0.00 25 1011.4
20260505235801 76 267 7.0 14.8 0.00 0.00 0.00 25 1011.4
20260505235304 76 238 5.2 14.8 0.00 0.00 0.00 26 1011.4
20260505234801 76 296 6.1 14.8 0.00 0.00 0.00 26 1011.4
20260505234300 76 252 7.8 17.4 0.00 0.00 0.00 26 1011.3
20260505233801 76 311 7.8 17.4 0.00 0.00 0.00 26 1011.4
20260505233301 76 241 7.8 14.8 0.00 0.00 0.00 26 1011.3
20260505232800 75 279 7.0 14.8 0.00 0.00 0.00 28 1011.3
20260505232301 75 313 7.8 16.5 0.00 0.00 0.00 28 1011.4
20260505231801 76 299 8.7 16.5 0.00 0.00 0.00 28 1011.3
20260505231301 75 219 9.6 20.9 0.00 0.00 0.00 28 1011.5
20260505230801 76 271 8.7 20.9 0.00 0.00 0.00 28 1011.5
20260505230301 76 271 8.7 18.2 0.00 0.00 0.00 28 1011.5
20260505225759 76 294 8.7 18.2 0.00 0.00 0.00 29 1011.6
20260505225259 76 262 7.0 15.6 0.00 0.00 0.00 29 1011.7
20260505224758 75 272 7.8 17.4 0.00 0.00 0.00 30 1011.8
20260505224259 75 276 10.4 18.2 0.00 0.00 0.00 30 1012.2
20260505223755 75 242 11.3 22.6 0.00 0.00 0.00 30 1012.0
20260505223253 75 298 11.3 22.6 0.00 0.00 0.00 30 1012.2
20260505222753 75 291 11.3 20.9 0.00 0.00 0.00 30 1012.0
20260505222253 75 270 10.4 20.0 0.00 0.00 0.00 30 1012.3
20260505221752 75 290 9.6 19.1 0.00 0.00 0.00 30 1012.5
20260505221520 74 309 9.6 18.2 0.00 0.00 0.00 31 1012.4
20260505221017 74 320 11.3 20.9 0.00 0.00 0.00 32 1012.4
20260505220252 74 290 11.3 20.9 0.00 0.00 0.00 31 1012.5
20260505220020 75 288 8.7 19.1 0.00 0.00 0.00 31 1012.5
20260505215243 75 287 7.0 13.0 0.00 0.00 0.00 31 1012.5
20260505214736 76 315 9.6 21.7 0.00 0.00 0.00 30 1012.5
20260505214234 76 244 13.0 23.5 0.00 0.00 0.00 29 1012.7
20260505213735 76 226 12.2 23.5 0.00 0.00 0.00 29 1012.9
20260505213234 76 272 10.4 20.0 0.00 0.00 0.00 31 1013.2
20260505212958 76 271 9.6 20.0 0.00 0.00 0.00 30 1013.1
20260505212234 76 254 7.8 14.8 0.00 0.00 0.00 31 1013.2
20260505211735 76 279 7.0 14.8 0.00 0.00 0.00 31 1013.3
20260505211459 75 241 6.1 13.0 0.00 0.00 0.00 32 1013.4
20260505210735 75 298 6.1 13.0 0.00 0.00 0.00 33 1013.5
20260505210232 75 306 7.0 16.5 0.00 0.00 0.00 33 1013.5
20260505205731 74 242 8.7 16.5 0.00 0.00 0.00 33 1013.5
20260505205230 74 342 9.6 15.6 0.00 0.00 0.00 33 1013.5
20260505204731 74 316 8.7 15.6 0.00 0.00 0.00 33 1013.6
20260505204230 74 319 7.0 12.2 0.00 0.00 0.00 33 1013.7
20260505203952 74 217 7.0 16.5 0.00 0.00 0.00 34 1013.8
20260505203231 74 250 6.1 16.5 0.00 0.00 0.00 33 1013.8
20260505202730 74 343 5.2 12.2 0.00 0.00 0.00 34 1013.7
20260505202444 74 287 7.8 15.6 0.00 0.00 0.00 33 1014.1
20260505201717 74 296 8.7 15.6 0.00 0.00 0.00 34 1014.2
20260505201432 73 323 7.0 14.8 0.00 0.00 0.00 34 1014.1
20260505200705 74 302 7.0 14.8 0.00 0.00 0.00 34 1014.1
20260505200204 74 232 7.8 13.9 0.00 0.00 0.00 33 1014.2
20260505195701 74 284 7.0 15.6 0.00 0.00 0.00 33 1014.3
20260505195202 74 313 7.8 20.9 0.00 0.00 0.00 33 1014.4
20260505194702 73 307 8.7 20.9 0.00 0.00 0.00 33 1014.4
20260505194427 73 308 9.6 17.4 0.00 0.00 0.00 33 1014.6
20260505193702 73 283 8.7 17.4 0.00 0.00 0.00 33 1014.5
20260505193202 75 284 8.7 17.4 0.00 0.00 0.00 31 1014.5
20260505192702 74 255 8.7 18.2 0.00 0.00 0.00 32 1014.5
20260505192202 75 247 11.3 23.5 0.00 0.00 0.00 31 1014.5
20260505191701 74 222 12.2 23.5 0.00 0.00 0.00 31 1014.5
20260505191202 74 240 11.3 22.6 0.00 0.00 0.00 31 1014.5
20260505190701 74 286 11.3 22.6 0.00 0.00 0.00 31 1014.6
20260505190201 73 285 10.4 22.6 0.00 0.00 0.00 31 1014.5
20260505185702 73 202 8.7 21.7 0.00 0.00 0.00 31 1014.5
20260505185202 73 254 9.6 18.2 0.00 0.00 0.00 30 1014.4
20260505184701 73 272 9.6 18.2 0.00 0.00 0.00 30 1014.3
20260505184201 73 279 8.7 15.6 0.00 0.00 0.00 30 1014.5
20260505184139 74 287 8.7 15.6 0.00 0.00 0.00 29 1014.6
20260505183202 74 267 8.7 20.9 0.00 0.00 0.00 29 1014.5
20260505182703 74 259 7.8 20.9 0.00 0.00 0.00 29 1014.5
20260505182201 73 224 10.4 20.0 0.00 0.00 0.00 29 1014.5
20260505181701 73 251 11.3 20.0 0.00 0.00 0.00 30 1014.7
20260505181201 74 255 8.7 17.4 0.00 0.00 0.00 30 1014.5
20260505180701 74 236 7.8 17.4 0.00 0.00 0.00 30 1014.4
20260505180201 74 257 9.6 21.7 0.00 0.00 0.00 31 1014.4
20260505175701 73 225 10.4 21.7 0.00 0.00 0.00 31 1014.4
20260505175201 73 246 8.7 16.5 0.00 0.00 0.00 31 1014.7
20260505174701 73 299 7.8 17.4 0.00 0.00 0.00 32 1014.6
20260505174201 73 252 7.0 17.4 0.00 0.00 0.00 32 1015.0
20260505174143 73 290 5.2 17.4 0.00 0.00 0.00 33 1014.9
20260505173421 72 280 7.0 18.2 0.00 0.00 0.00 34 1015.0
20260505172701 72 259 7.8 18.2 0.00 0.00 0.00 34 1015.0
20260505172201 72 284 6.1 13.0 0.00 0.00 0.00 35 1014.9
20260505171701 71 255 5.2 12.2 0.00 0.00 0.00 36 1014.9
20260505171200 70 236 5.2 12.2 0.00 0.00 0.00 36 1015.0
20260505170920 70 273 5.2 12.2 0.00 0.00 0.00 37 1015.0
20260505170156 70 269 5.2 12.2 0.00 0.00 0.00 36 1015.0
20260505170143 69 253 5.2 7.8 0.00 0.00 0.00 37 1014.9
20260505165417 69 199 5.2 12.2 0.00 0.00 0.00 37 1014.9
20260505164920 69 225 5.2 12.2 0.00 0.00 0.00 37 1014.7
20260505164417 69 228 6.1 14.8 0.00 0.00 0.00 37 1014.7
20260505163652 69 222 5.2 14.8 0.00 0.00 0.00 36 1015.0
20260505163152 69 258 2.6 8.7 0.00 0.00 0.00 37 1014.9
20260505162652 68 261 1.7 5.2 0.00 0.00 0.00 37 1014.9
20260505162152 68 102 2.6 7.8 0.00 0.00 0.00 39 1014.7
20260505161652 68 108 4.3 7.8 0.00 0.00 0.00 39 1014.9
20260505161152 67 117 2.6 7.0 0.00 0.00 0.00 40 1015.0
20260505160652 67 134 1.7 6.1 0.00 0.00 0.00 41 1015.0
20260505160151 67 122 3.5 9.6 0.00 0.00 0.00 42 1014.9
20260505153144 65 90 1.7 6.1 0.00 0.00 0.00 43 1014.7
20260505152644 65 42 1.7 4.3 0.00 0.00 0.00 44 1014.6
20260505152142 64 191 0.9 5.2 0.00 0.00 0.00 45 1014.7
20260505151907 64 108 1.7 5.2 0.00 0.00 0.00 46 1014.7
20260505151143 64 50 1.7 6.1 0.00 0.00 0.00 46 1014.9
20260505150642 63 20 2.6 6.1 0.00 0.00 0.00 47 1014.7
20260505150137 63 82 2.6 6.1 0.00 0.00 0.00 47 1014.7
20260505140638 65 42 4.3 10.4 0.00 0.00 0.00 43 1015.1
20260505140400 65 30 5.2 15.6 0.00 0.00 0.00 41 1015.2
20260505130130 64 41 2.6 7.0 0.00 0.00 0.00 43 1014.6
20260505124630 64 12 4.3 10.4 0.00 0.00 0.00 43 1014.4
20260505124354 64 316 6.1 14.8 0.00 0.00 0.00 43 1014.2
20260505123630 64 339 7.0 14.8 0.00 0.00 0.00 44 1014.3
20260505123129 63 336 7.0 12.2 0.00 0.00 0.00 44 1014.3
20260505122629 64 320 7.0 13.9 0.00 0.00 0.00 43 1014.3
20260505122130 64 312 7.0 13.9 0.00 0.00 0.00 43 1014.2
20260505121851 64 327 7.8 15.6 0.00 0.00 0.00 43 1014.2
20260505121129 63 329 7.8 15.6 0.00 0.00 0.00 43 1013.8
20260505120629 63 335 7.0 15.6 0.00 0.00 0.00 43 1013.7
20260505120130 64 329 8.7 17.4 0.00 0.00 0.00 43 1013.8
20260505115629 64 313 10.4 18.2 0.00 0.00 0.00 42 1013.7
20260505115129 64 305 10.4 18.2 0.00 0.00 0.00 42 1013.7
20260505114632 64 316 11.3 20.9 0.00 0.00 0.00 41 1013.7
20260505114350 64 314 10.4 20.9 0.00 0.00 0.00 42 1013.8
20260505113629 64 304 10.4 16.5 0.00 0.00 0.00 41 1013.6
20260505113129 64 312 10.4 20.9 0.00 0.00 0.00 41 1013.3
20260505112629 64 290 10.4 20.9 0.00 0.00 0.00 40 1013.5
20260505112130 64 313 9.6 17.4 0.00 0.00 0.00 40 1013.4
20260505111629 65 277 10.4 18.2 0.00 0.00 0.00 39 1013.2
20260505111129 65 294 12.2 23.5 0.00 0.00 0.00 39 1012.9
20260505110630 65 299 13.0 23.5 0.00 0.00 0.00 38 1012.9
20260505110356 65 294 13.0 20.9 0.00 0.00 0.00 38 1012.9